Dewpoint
-16 -12 3 8 8 8 9 8 5 4 2 1 1 -1 -2 -2 2 6 8 8 7 7 8 9 9 7 7 7 4 3 4 7 8 6 11 12 11 9 7 11 11 11 11 12 12 12 12 9 9
-8 -7 5 9 5 10 6 6 6 4 1 0 0 -1 -2 -2 6 8 9 9 8 7 7 9 8 9 8 7 4 5 5 8 7 7 10 12 12 11 12 12 11 10 11 11 11 12 11 9 10
-7 0 6 8 7 3 0 4 4 2 2 -1 -1 -1 -1 1 8 6 7 8 10 8 7 9 9 10 8 8 4 6 7 8 4 8 9 11 11 11 11 10 10 10 11 11 11 10 10 10 10
3 6 7 7 6 1 -1 -2 -3 -4 -6 -5 -4 -3 2 4 5 7 6 7 10 10 7 8 8 9 8 9 4 7 8 7 3 9 10 10 12 12 9 7 8 11 10 9 8 10 10 10 10
3 6 5 4 2 1 -5 -7 -6 -6 -7 -6 -6 -3 -1 10 10 5 4 6 8 10 8 8 7 8 8 9 4 7 8 7 7 10 11 12 12 11 9 8 7 9 9 -0 -2 8 10 10 10
2 2 5 6 1 -1 -2 -4 -6 -8 -9 -9 1 2 -1 11 12 12 6 5 8 9 8 9 8 8 8 9 5 8 9 7 6 9 11 12 12 10 9 7 5 8 2 -2 3 6 8 8 9
1 2 3 3 2 1 -2 -6 -8 -9 -9 -8 0 -2 -0 11 8 14 14 10 9 10 9 9 9 9 9 9 6 9 9 8 6 7 10 10 10 9 8 8 7 7 -2 -5 4 8 9 9 8
-2 -0 2 0 -0 -2 -5 -7 -7 -8 -8 -8 -8 -3 2 -1 -2 8 15 14 11 11 9 9 10 8 9 8 7 10 10 9 7 7 10 11 9 8 9 8 8 10 -2 -3 2 8 9 9 9
-4 -2 -0 -1 -1 -5 -6 -5 -6 -7 -6 -8 -8 -5 -9 -7 -1 6 14 15 14 12 10 9 11 9 9 7 7 10 11 10 8 8 10 10 8 7 9 9 10 10 7 1 3 8 9 9 9
-3 -1 -4 -4 -4 -4 -3 -3 -4 -5 -6 -6 -7 -8 -10 -10 -7 -3 7 14 14 14 11 9 11 10 9 7 11 11 12 11 9 7 10 8 6 6 8 10 10 9 6 1 4 9 9 9 9
-2 -1 -2 -3 -4 -3 -3 -3 -4 -4 -4 -7 -7 -7 -8 -9 -10 -7 -3 6 13 15 13 10 11 10 9 6 12 11 12 12 10 8 8 7 7 7 7 8 8 8 5 0 4 8 8 8 8
-1 -3 -3 -3 -3 -3 -3 -4 -4 -4 -4 -5 -5 -6 -6 -7 -9 -10 -7 -3 3 11 13 13 10 10 7 7 11 11 12 12 10 10 9 8 8 8 8 8 7 4 2 -2 1 6 8 8 7
-1 -2 -2 -3 -2 -2 -2 -2 -3 -4 -5 -5 -6 -7 -7 -6 -7 -10 -10 -8 -3 3 12 14 13 10 7 11 11 12 12 12 11 11 10 8 8 8 9 9 8 6 2 -2 -1 5 8 8 7
-1 0 -0 -1 -2 -2 -1 -2 -3 -4 -5 -5 -5 -6 -10 -7 -7 -8 -11 -11 -8 -3 10 13 14 12 10 12 12 12 12 12 11 11 10 9 8 8 10 10 9 7 5 -1 -2 4 7 7 7
0 1 -0 -2 -2 -0 -2 -1 -1 -4 -4 -5 -5 -5 -6 -14 -10 -7 -7 -12 -10 -7 0 9 13 12 12 11 12 11 12 12 12 10 10 9 8 8 10 10 9 7 6 2 1 1 5 5 6
0 0 1 -2 -2 -2 -2 -1 -4 -6 -5 -4 -4 -5 -5 -6 -14 -10 -8 -7 -12 -11 -8 5 10 13 12 11 13 12 12 12 12 11 10 10 9 9 10 10 9 8 7 4 4 4 5 6 6
-1 1 0 -1 -3 -3 -0 -1 -4 -5 -5 -4 -4 -4 -4 -5 -6 -11 -7 -8 -8 -8 -12 -10 7 9 12 11 13 12 12 13 12 11 10 10 10 10 10 10 9 9 7 6 7 6 7 7 7
-4 1 -0 0 -2 -2 -1 -1 -3 -4 -4 -4 -4 -4 -4 -4 -5 -9 -6 -6 -7 -6 -6 -9 -1 6 13 12 13 12 13 13 13 11 10 11 11 10 10 10 9 9 8 7 8 8 7 6 6
-1 0 1 -0 -2 -0 -0 -0 -1 -2 -2 -2 -3 -4 -4 -4 -5 -7 -5 -6 -6 -6 -4 -7 -7 5 7 13 12 13 13 13 13 11 10 11 11 11 11 10 10 9 9 8 8 8 7 8 7
0 2 2 -0 -1 0 1 1 -0 -0 -0 -1 -2 -2 -3 -4 -3 -5 -4 -5 -6 -6 -2 -5 -6 -3 6 13 12 12 13 12 12 11 11 11 11 11 10 9 9 10 9 9 8 8 8 8 6
1 2 1 2 0 0 1 3 1 -0 -1 -2 -0 -1 -2 -3 -3 -4 -4 -4 -5 -4 -3 -5 -9 -0 6 9 13 12 13 12 12 11 12 11 11 11 10 9 10 10 9 9 8 8 7 6 7
2 -1 0 1 2 4 3 5 3 1 2 2 2 2 1 -2 -3 -3 -3 -3 -4 -4 -4 -6 -3 -4 2 7 13 12 12 12 12 12 11 11 11 11 10 10 9 9 9 9 8 8 7 7 6
0 -0 2 3 4 5 4 6 2 3 5 2 3 4 2 -1 -3 -3 -3 -4 -4 -5 -3 -3 -3 -5 1 7 12 13 12 12 12 11 11 11 11 11 10 9 10 9 8 8 8 8 7 6 6
-1 2 2 3 5 5 3 4 3 7 3 1 3 4 2 -1 -2 -2 -1 -3 -4 -2 -2 -1 -5 -2 3 6 13 12 12 12 12 11 11 11 11 10 10 10 9 8 7 7 6 6 6 6 7
3 4 4 2 3 4 1 4 5 4 -1 -2 1 3 1 -1 -2 -1 2 2 1 2 0 1 -0 1 2 9 12 12 12 12 10 11 11 11 11 10 11 10 9 7 6 6 6 6 7 6 6
0 3 5 6 5 4 2 6 4 -1 -2 -2 2 8 2 0 0 0 2 3 3 4 4 1 2 -1 9 12 12 12 12 11 11 10 10 10 10 11 11 9 9 7 6 6 5 6 6 5 5
2 3 2 6 5 6 4 2 -2 -1 -0 -0 6 7 5 2 3 3 3 0 -2 1 4 -0 -1 -1 3 11 12 12 12 11 10 11 10 10 10 10 9 10 9 7 6 5 4 5 5 4 5
-2 2 7 6 6 6 3 3 2 1 1 1 3 7 4 3 3 4 4 4 3 3 5 4 -1 1 6 12 12 12 12 11 11 11 10 10 10 10 9 8 8 6 5 4 3 3 4 4 4
1 0 4 5 5 6 6 3 -1 0 -0 0 2 6 8 4 4 5 6 6 6 8 7 4 6 5 6 8 12 12 11 11 11 11 11 11 10 10 10 8 6 6 5 3 2 3 3 4 4
2 4 2 3 2 0 2 2 -2 -3 -3 -3 0 3 6 9 8 7 6 7 6 7 5 7 10 9 11 11 12 11 12 11 11 11 11 11 11 10 11 9 7 6 5 3 2 3 3 4 4
Wind_Speed
5 8 13 11 4 3 4 6 3 3 3 10 14 8 7 8 5 5 6 25 20 31 34 32 32 31 28 25 23 24 23 23 22 21 22 22 21 22 23 21 20 21 21 21 23 23 24 23 25
4 9 13 4 5 4 5 5 5 11 18 17 16 13 6 7 6 6 20 21 23 32 35 33 32 31 28 27 25 25 24 25 23 23 23 23 22 22 21 20 17 17 23 22 23 25 25 26 24
6 13 7 4 4 7 4 4 13 16 19 19 9 15 15 3 8 11 11 20 27 32 36 34 33 31 29 27 26 26 26 25 23 25 25 23 21 19 19 16 14 20 24 25 25 27 25 23 20
7 5 4 4 6 4 3 1 4 8 10 6 11 7 7 9 7 14 15 20 28 33 36 35 33 32 30 28 28 28 27 26 24 26 26 25 23 19 16 14 15 22 22 25 25 27 24 22 20
6 3 3 1 4 4 6 6 12 5 7 12 20 7 13 2 8 16 16 20 26 34 38 37 35 33 31 30 29 30 29 27 26 27 27 27 23 18 14 14 15 19 20 20 23 26 24 21 19
4 3 3 3 4 4 7 8 7 6 8 18 11 15 8 2 5 15 20 22 24 32 40 38 35 34 33 32 31 31 31 29 27 28 29 26 23 18 15 14 17 18 18 22 26 25 21 19 17
5 3 4 1 4 4 5 12 3 8 6 7 13 7 10 8 11 9 26 27 26 31 41 40 38 36 34 33 32 33 32 30 28 28 27 27 22 19 16 15 18 20 20 24 27 24 21 19 19
4 4 4 6 5 6 2 17 9 9 8 9 9 4 6 26 21 11 22 31 31 32 41 42 40 39 37 35 34 34 33 31 29 29 28 25 23 20 19 19 21 20 22 27 26 25 22 20 18
4 3 3 4 5 4 6 5 12 14 19 18 15 13 20 23 22 16 19 33 32 33 42 43 41 41 39 37 38 36 35 32 30 29 28 25 23 22 22 21 22 22 21 28 26 28 21 18 17
4 3 7 5 3 3 11 15 21 9 20 25 25 20 26 25 25 23 19 18 32 36 44 44 43 42 40 39 40 38 37 34 32 31 31 27 26 25 25 23 21 20 21 27 28 29 23 21 18
2 5 3 7 15 17 19 24 22 19 20 18 26 24 32 35 33 29 26 23 19 31 42 47 46 44 43 45 44 41 40 37 34 34 32 29 28 28 28 26 24 21 21 28 30 31 26 20 16
3 10 12 9 19 20 17 25 23 28 38 36 36 40 37 42 41 37 35 32 34 22 27 45 50 48 46 48 47 46 45 41 38 36 34 33 32 31 30 29 26 23 23 28 31 30 29 25 20
5 6 14 20 23 21 25 26 24 40 38 33 41 46 45 37 43 45 43 41 38 41 27 38 49 52 51 51 49 49 48 44 42 39 37 35 34 33 32 30 27 24 23 27 31 33 30 25 20
6 16 23 24 32 26 26 34 21 47 23 29 34 41 47 42 43 44 51 50 48 45 36 22 52 52 54 53 52 51 50 47 44 41 39 37 35 35 34 31 28 25 24 27 31 33 30 26 19
12 14 17 22 24 10 16 26 24 52 38 39 40 42 44 50 46 48 48 54 55 51 44 27 44 53 53 55 54 54 51 49 47 44 40 38 36 35 34 31 28 26 26 28 31 32 30 25 21
6 5 6 6 4 7 7 24 8 15 19 32 39 41 41 49 52 51 50 46 57 58 51 51 21 46 59 57 55 56 54 52 49 45 42 39 36 35 33 32 29 27 27 31 30 29 29 24 22
4 7 7 8 5 6 9 22 4 15 24 32 38 40 41 45 50 53 50 50 52 50 59 57 52 27 61 61 55 57 56 55 51 47 44 40 35 34 34 33 30 29 28 30 28 28 25 27 25
6 6 7 14 2 4 13 36 35 38 36 41 43 45 44 46 54 55 52 52 51 48 48 54 62 49 51 64 57 56 57 57 53 49 47 42 38 34 34 35 32 31 28 28 28 25 26 25 23
5 11 19 27 17 19 22 34 33 32 32 33 44 47 48 51 61 58 50 50 53 47 49 52 58 58 35 62 63 58 60 59 54 50 47 43 42 39 34 37 35 32 31 29 28 26 26 24 23
17 20 26 25 15 8 18 37 27 33 29 34 41 48 52 52 52 60 48 48 51 51 50 51 56 69 61 49 71 64 58 62 57 52 48 46 44 41 38 39 38 36 35 32 30 28 28 24 24
20 21 24 23 24 16 25 26 11 17 14 30 38 54 54 54 54 59 46 47 46 51 48 52 56 63 62 37 65 60 53 57 58 55 52 49 43 43 41 40 41 38 38 38 33 31 29 30 28
16 12 21 21 14 12 5 14 28 12 16 23 24 36 43 57 55 56 44 46 50 54 53 44 50 63 72 37 58 65 64 60 59 59 54 50 45 45 42 41 41 38 38 38 36 32 30 29 30
12 7 11 18 19 18 17 8 9 8 19 26 20 34 34 41 51 52 43 47 49 51 53 52 53 59 64 51 68 67 61 58 57 59 53 51 47 45 44 40 38 37 37 37 36 35 33 32 30
9 7 15 17 6 6 9 7 9 4 22 28 13 35 28 30 42 46 40 47 54 52 46 44 44 57 51 41 72 70 61 55 59 58 55 54 51 45 45 41 39 39 37 34 35 35 34 32 29
3 5 5 4 2 8 5 7 11 11 26 26 24 28 22 29 36 37 36 41 40 40 42 43 48 49 49 65 68 68 64 62 60 60 58 55 53 47 46 43 41 39 35 33 34 35 34 32 31
7 4 3 6 6 17 11 6 4 15 23 29 31 13 18 26 27 33 34 40 37 36 47 45 50 54 23 52 66 64 60 61 61 59 57 55 51 49 47 44 41 37 35 33 33 35 34 32 30
4 6 5 9 10 7 3 7 5 19 27 29 27 23 18 20 25 32 29 31 40 41 36 34 46 48 57 46 57 65 67 63 60 58 55 53 49 47 47 46 43 39 36 34 33 35 33 31 31
3 3 4 3 5 6 4 5 6 20 28 30 31 30 3 22 25 27 31 36 38 39 32 45 46 56 54 42 61 65 62 60 61 58 54 53 49 45 43 46 43 41 38 35 34 34 33 32 30
6 2 4 5 4 4 7 4 3 13 23 27 29 33 24 11 21 27 26 29 27 27 41 35 47 59 48 65 52 60 59 61 57 57 55 53 48 45 42 44 43 42 39 37 36 35 33 32 31
4 1 3 3 7 7 7 8 5 17 21 25 22 37 43 14 3 7 9 9 18 18 20 28 20 64 65 60 63 57 60 58 59 57 54 52 48 42 40 44 43 41 41 38 38 37 35 34 33
Wind_Direction
203 183 158 147 84 58 248 245 244 290 262 231 240 298 239 242 186 213 173 171 171 174 175 174 173 172 167 162 158 154 151 147 143 140 136 139 134 125 128 133 130 135 127 120 117 114 113 113 112
184 164 155 136 117 165 245 211 231 241 249 307 317 298 298 241 213 161 157 169 179 176 175 176 176 173 170 165 160 157 153 151 146 145 143 143 141 135 136 140 145 147 125 123 120 117 110 108 110
165 158 143 147 163 204 218 215 218 236 278 321 303 289 299 241 211 178 171 173 180 180 177 177 177 175 173 169 163 158 155 154 149 149 148 147 149 144 147 149 152 138 132 131 128 121 116 112 110
136 137 99 127 210 264 246 356 24 324 325 307 330 318 312 247 213 184 167 181 181 183 180 179 180 178 176 172 166 162 159 158 154 153 153 153 151 152 151 146 156 139 136 134 134 130 121 119 119
103 90 83 131 235 259 317 329 346 343 326 339 341 304 337 310 198 191 185 180 182 185 183 182 181 180 179 175 169 165 163 160 158 155 155 156 157 159 158 156 156 141 138 136 134 132 127 127 124
67 66 81 210 257 309 292 331 340 12 359 339 8 332 322 357 176 212 194 187 188 189 185 185 182 181 180 178 174 170 167 164 162 161 160 161 166 168 166 164 164 149 145 140 138 136 132 133 121
105 93 190 221 251 299 253 353 49 337 13 340 356 340 293 117 28 232 199 195 190 194 187 186 183 183 181 181 178 175 172 168 166 168 169 169 173 174 171 171 163 157 152 149 144 139 136 136 133
103 100 147 216 190 240 258 342 328 6 308 299 333 276 327 315 328 298 217 202 199 194 192 189 186 185 183 183 181 179 176 172 171 172 173 172 174 178 174 168 158 159 153 152 149 141 144 142 136
119 82 219 243 179 251 290 8 300 306 284 285 279 273 291 306 305 326 224 207 202 195 194 191 188 187 185 184 182 181 179 177 175 176 176 176 178 176 172 168 158 160 154 156 151 146 152 145 146
100 166 226 213 210 263 297 298 300 294 280 280 285 275 273 282 295 294 286 217 209 199 197 196 191 191 187 185 181 182 181 182 180 180 181 181 178 172 167 163 163 163 158 158 155 152 151 147 154
142 221 202 239 275 299 295 288 286 284 276 252 274 281 284 283 282 283 284 268 231 205 206 198 196 193 191 184 184 183 184 184 185 182 184 182 178 171 171 172 173 177 169 162 163 159 156 154 168
311 256 266 294 297 295 281 285 276 265 262 270 274 280 282 279 276 272 274 273 269 247 203 209 199 195 192 187 187 186 186 186 186 185 184 184 180 178 176 177 175 174 170 168 169 166 162 170 180
227 282 281 287 295 286 290 269 266 263 263 265 272 274 274 273 272 268 265 269 266 266 228 207 206 199 193 191 189 189 188 188 187 187 187 188 185 183 181 178 175 172 171 173 171 169 170 173 177
316 313 302 294 284 283 275 272 266 265 260 258 256 264 269 269 268 269 263 260 262 267 241 222 211 205 195 193 192 193 191 190 189 189 189 191 190 188 186 182 179 178 177 176 175 175 177 176 178
303 302 295 271 265 255 271 273 236 260 263 255 254 254 256 264 262 261 263 258 258 258 255 240 207 211 201 197 195 195 193 192 192 192 191 192 192 192 189 186 183 181 178 178 176 178 185 190 185
270 258 290 276 160 238 156 275 328 255 262 246 250 249 250 253 259 259 254 257 255 255 255 248 226 203 209 201 197 197 194 195 194 193 192 191 193 193 192 190 187 181 179 180 182 183 185 191 195
241 265 259 288 199 201 179 271 300 244 246 250 252 248 243 243 251 257 251 249 251 253 254 255 238 254 209 204 198 198 197 196 196 194 192 190 192 195 197 193 189 184 181 183 187 189 194 196 198
240 258 258 271 246 228 251 265 272 267 260 256 255 249 241 238 242 249 246 243 245 249 249 252 243 237 201 206 198 198 199 197 198 196 193 191 194 197 199 193 190 187 188 188 191 194 195 198 202
265 267 271 270 272 274 254 264 273 276 260 261 257 253 245 238 243 248 243 237 240 239 246 252 250 237 239 197 197 194 196 194 196 199 195 194 198 199 205 193 190 193 196 192 197 196 197 197 200
254 265 269 283 266 231 276 277 283 276 272 264 264 255 247 243 234 241 236 234 238 234 231 245 246 241 238 205 201 195 191 196 196 199 196 199 199 200 205 195 190 196 200 196 202 202 200 205 203
251 256 265 265 290 277 278 284 261 302 258 266 254 258 252 241 232 232 225 224 228 234 240 245 250 246 234 245 188 189 190 191 192 198 197 197 201 200 205 196 194 199 203 202 206 205 208 204 201
254 248 250 268 295 304 105 292 311 325 305 285 272 262 262 236 229 229 223 217 220 230 234 244 244 239 239 239 186 187 188 186 188 194 198 197 200 200 204 203 201 202 202 207 209 211 212 213 207
237 268 272 274 274 288 275 246 278 332 296 308 299 282 281 231 222 224 223 216 219 228 230 237 241 241 235 240 194 189 188 189 188 195 198 199 200 203 202 205 204 207 206 208 212 213 213 214 213
261 309 278 269 251 247 247 184 284 291 305 312 314 289 269 223 223 224 221 214 218 220 228 236 243 239 238 250 182 187 185 183 188 195 196 197 199 201 203 206 205 207 207 208 212 213 213 214 218
136 296 304 328 242 241 201 280 259 271 323 320 306 275 236 219 216 214 196 202 207 214 223 231 230 232 237 231 183 185 187 188 196 194 195 196 199 200 203 207 205 205 207 209 212 213 215 218 219
265 211 248 288 284 294 280 234 262 343 330 334 321 325 218 204 208 207 205 201 210 210 219 217 210 220 222 170 181 185 191 196 197 197 197 199 200 204 206 206 208 207 209 211 213 214 218 220 224
293 264 272 267 258 272 236 286 307 337 345 350 356 355 213 233 204 217 210 225 227 232 222 215 220 230 226 216 187 186 190 196 199 199 199 200 202 205 207 209 209 210 212 213 213 215 218 221 226
206 335 307 259 296 289 295 285 317 355 351 351 351 353 46 214 214 216 212 217 224 225 223 219 225 234 214 196 185 186 189 195 198 197 199 201 204 206 209 209 210 211 212 214 214 218 219 222 224
343 8 329 284 251 292 334 275 27 14 1 353 350 348 353 180 198 209 213 210 202 205 207 208 212 216 219 196 187 187 196 195 194 196 199 203 206 208 212 210 210 212 212 213 215 218 220 222 223
136 90 19 334 322 288 260 267 136 2 0 348 351 350 355 353 224 242 265 250 213 223 219 209 208 189 181 184 187 192 195 194 197 197 202 206 210 213 213 212 212 214 215 215 217 220 221 223 226
Height
1501 1502 1504 1508 1520 1523 1519 1511 1498 1497 1494 1486 1486 1487 1487 1485 1484 1497 1479 1481 1483 1487 1493 1498 1503 1504 1507 1509 1511 1513 1515 1517 1519 1522 1525 1527 1529 1530 1530 1532 1533 1534 1535 1537 1538 1539 1540 1540 1541
1500 1501 1505 1508 1522 1528 1513 1501 1500 1493 1486 1487 1487 1485 1483 1482 1479 1477 1480 1482 1484 1486 1490 1496 1501 1505 1507 1509 1511 1514 1515 1517 1519 1521 1525 1528 1530 1531 1533 1534 1534 1535 1535 1539 1540 1541 1542 1543 1545
1500 1501 1504 1509 1518 1517 1508 1495 1491 1489 1489 1490 1488 1486 1484 1480 1479 1476 1478 1481 1484 1486 1489 1495 1500 1504 1507 1509 1510 1513 1516 1518 1520 1522 1524 1529 1532 1533 1534 1535 1536 1537 1537 1540 1541 1543 1544 1545 1547
1498 1503 1506 1512 1513 1502 1497 1493 1493 1494 1489 1490 1490 1486 1482 1480 1478 1477 1477 1479 1484 1487 1489 1491 1498 1503 1507 1509 1510 1513 1516 1519 1520 1522 1525 1528 1532 1534 1535 1536 1537 1538 1539 1539 1540 1544 1545 1547 1548
1500 1501 1510 1510 1508 1501 1495 1493 1494 1492 1493 1491 1488 1484 1483 1481 1479 1477 1477 1478 1480 1486 1490 1492 1494 1500 1505 1508 1510 1512 1516 1518 1521 1522 1524 1527 1531 1535 1536 1537 1538 1539 1539 1540 1541 1544 1545 1547 1548
1499 1501 1512 1514 1506 1501 1496 1493 1494 1495 1494 1492 1488 1486 1484 1483 1483 1484 1477 1477 1479 1483 1488 1493 1495 1498 1504 1507 1510 1512 1514 1517 1520 1523 1524 1526 1530 1533 1537 1538 1538 1540 1541 1542 1544 1545 1546 1548 1550
1501 1508 1512 1511 1511 1503 1494 1492 1496 1494 1494 1493 1491 1489 1485 1483 1486 1487 1485 1480 1478 1482 1486 1490 1493 1496 1502 1507 1509 1511 1514 1516 1519 1522 1525 1525 1529 1532 1535 1539 1539 1539 1541 1543 1545 1547 1548 1549 1552
1502 1506 1512 1512 1508 1502 1492 1492 1494 1497 1491 1493 1492 1487 1484 1482 1484 1487 1485 1486 1479 1480 1484 1488 1490 1492 1497 1503 1508 1511 1513 1515 1518 1521 1524 1527 1527 1531 1534 1536 1540 1542 1542 1543 1545 1548 1551 1552 1554
1501 1510 1514 1506 1504 1495 1494 1497 1494 1493 1491 1488 1488 1486 1484 1482 1483 1484 1484 1485 1482 1480 1483 1486 1489 1491 1494 1500 1504 1510 1513 1515 1517 1521 1524 1525 1527 1529 1533 1536 1538 1542 1544 1545 1547 1549 1551 1554 1556
1501 1511 1503 1495 1496 1497 1495 1495 1492 1491 1489 1483 1483 1483 1482 1481 1480 1480 1482 1483 1485 1481 1479 1483 1486 1490 1492 1497 1502 1506 1510 1514 1515 1518 1521 1524 1525 1527 1531 1535 1539 1541 1544 1547 1549 1550 1552 1555 1557
1500 1500 1496 1491 1493 1495 1491 1487 1490 1485 1474 1480 1475 1474 1476 1476 1476 1477 1477 1479 1480 1485 1483 1476 1482 1486 1490 1492 1498 1502 1506 1510 1514 1515 1519 1522 1525 1526 1529 1533 1535 1541 1543 1546 1549 1551 1552 1554 1556
1501 1494 1495 1490 1492 1491 1487 1482 1478 1475 1461 1469 1470 1470 1470 1469 1470 1471 1472 1472 1472 1472 1474 1479 1473 1479 1485 1489 1493 1496 1500 1505 1510 1513 1516 1520 1521 1524 1525 1529 1534 1537 1541 1545 1549 1552 1553 1555 1556
1498 1494 1493 1492 1490 1488 1485 1476 1474 1451 1462 1468 1465 1462 1461 1463 1462 1463 1465 1465 1467 1463 1469 1472 1475 1471 1477 1484 1488 1493 1495 1501 1505 1510 1513 1517 1519 1522 1524 1527 1531 1535 1539 1543 1547 1551 1554 1555 1556
1495 1494 1490 1486 1482 1483 1477 1458 1472 1426 1456 1459 1459 1455 1450 1452 1454 1456 1456 1455 1456 1457 1462 1464 1469 1472 1472 1476 1482 1488 1492 1496 1501 1505 1509 1513 1517 1519 1523 1525 1528 1532 1537 1540 1544 1549 1553 1555 1556
1495 1494 1489 1478 1475 1479 1472 1446 1446 1435 1451 1450 1449 1447 1446 1439 1442 1442 1445 1447 1447 1450 1452 1454 1464 1466 1470 1471 1475 1481 1489 1491 1496 1499 1505 1510 1512 1517 1522 1525 1527 1529 1533 1539 1543 1546 1551 1555 1557
1495 1494 1488 1472 1471 1471 1475 1434 1441 1441 1441 1437 1435 1434 1434 1433 1427 1428 1432 1436 1437 1437 1438 1442 1448 1455 1460 1466 1470 1474 1482 1487 1491 1496 1501 1505 1510 1513 1519 1523 1526 1528 1531 1535 1540 1543 1547 1552 1555
1497 1491 1487 1474 1463 1468 1470 1438 1425 1428 1430 1422 1421 1417 1418 1419 1419 1415 1417 1421 1425 1425 1428 1430 1429 1436 1448 1456 1464 1469 1475 1482 1486 1491 1496 1502 1506 1511 1515 1519 1524 1527 1530 1533 1538 1541 1544 1548 1552
1502 1491 1479 1471 1461 1464 1462 1427 1412 1422 1422 1408 1405 1402 1403 1401 1399 1401 1403 1409 1412 1414 1419 1420 1421 1423 1437 1446 1457 1463 1469 1476 1480 1485 1490 1497 1502 1507 1511 1516 1522 1524 1527 1532 1535 1540 1543 1545 1551
1483 1482 1476 1457 1458 1458 1452 1423 1407 1400 1409 1402 1394 1389 1385 1382 1377 1387 1391 1395 1401 1403 1405 1407 1410 1413 1426 1433 1441 1449 1455 1466 1473 1479 1487 1491 1497 1503 1507 1510 1518 1522 1524 1527 1533 1537 1542 1544 1548
1482 1478 1464 1445 1445 1448 1434 1399 1403 1383 1386 1389 1380 1371 1365 1365 1367 1368 1372 1379 1383 1387 1396 1398 1408 1416 1411 1417 1424 1437 1446 1457 1464 1472 1480 1487 1492 1499 1502 1505 1511 1518 1522 1524 1529 1532 1538 1543 1545
1472 1468 1456 1449 1435 1440 1426 1388 1375 1364 1369 1363 1355 1348 1347 1345 1346 1349 1355 1363 1369 1372 1371 1386 1385 1387 1397 1407 1411 1429 1445 1453 1456 1462 1472 1479 1487 1493 1498 1502 1507 1511 1519 1520 1525 1527 1532 1536 1541
1471 1447 1449 1444 1441 1426 1427 1398 1361 1364 1359 1348 1341 1332 1320 1318 1326 1331 1339 1347 1357 1361 1371 1370 1389 1401 1405 1402 1398 1416 1429 1433 1441 1451 1464 1474 1481 1488 1494 1498 1502 1506 1512 1517 1520 1524 1526 1532 1536
1454 1440 1440 1436 1433 1428 1408 1415 1371 1363 1351 1331 1324 1311 1304 1299 1307 1314 1328 1334 1344 1350 1357 1368 1371 1382 1386 1401 1397 1412 1422 1431 1436 1447 1458 1467 1475 1483 1489 1493 1497 1502 1507 1512 1516 1519 1522 1526 1530
1440 1442 1433 1424 1424 1417 1403 1409 1361 1361 1340 1317 1315 1301 1294 1291 1297 1305 1318 1323 1327 1337 1344 1353 1351 1357 1376 1370 1372 1399 1411 1422 1429 1439 1450 1458 1467 1476 1484 1488 1493 1497 1502 1506 1510 1514 1518 1521 1525
1443 1439 1433 1443 1437 1404 1393 1390 1361 1346 1333 1318 1297 1282 1282 1281 1290 1298 1305 1315 1320 1319 1332 1345 1354 1370 1381 1357 1371 1392 1405 1410 1423 1432 1441 1450 1460 1468 1477 1481 1486 1492 1496 1501 1506 1509 1513 1516 1520
1433 1431 1433 1413 1400 1381 1383 1383 1352 1345 1333 1316 1294 1275 1280 1279 1287 1290 1299 1304 1314 1325 1333 1340 1353 1358 1354 1346 1366 1385 1391 1405 1420 1428 1437 1444 1453 1459 1469 1475 1480 1486 1491 1496 1501 1505 1508 1512 1515
1429 1431 1419 1411 1402 1393 1377 1360 1346 1341 1325 1312 1296 1280 1280 1285 1287 1287 1295 1297 1306 1308 1312 1319 1334 1344 1361 1367 1365 1375 1386 1402 1414 1426 1433 1439 1447 1455 1462 1469 1474 1480 1486 1492 1495 1500 1503 1506 1510
1425 1421 1414 1410 1398 1389 1375 1368 1358 1348 1330 1317 1303 1290 1285 1284 1286 1290 1295 1297 1297 1304 1309 1324 1332 1338 1354 1352 1364 1371 1387 1393 1412 1420 1424 1433 1443 1450 1458 1465 1470 1475 1480 1486 1490 1494 1499 1502 1504
1430 1425 1426 1418 1409 1391 1379 1369 1357 1356 1343 1329 1318 1304 1287 1288 1289 1290 1294 1297 1301 1310 1317 1320 1329 1334 1340 1352 1351 1366 1383 1393 1404 1412 1418 1427 1437 1444 1452 1459 1464 1469 1474 1479 1484 1488 1492 1496 1498
1428 1431 1433 1429 1421 1416 1402 1370 1351 1354 1352 1340 1328 1320 1302 1295 1291 1287 1283 1286 1292 1295 1300 1302 1309 1323 1336 1347 1352 1367 1381 1388 1397 1404 1412 1423 1431 1438 1446 1452 1458 1463 1469 1474 1478 1480 1485 1489 1491